Terminal Aerodrome Forecast
Issued by NWS King Salmon, AK

Home | Current Version | Previous Version | Text Only | Print | Product List | Glossary On
Versions: 1 2 3 4 5 6 7 8 9 10 11 12 13 14 15 16 17
000
FTAK31 PANC 252330
TAFAKN
TAF
PAKN 252330Z 2600/2624 VRB03KT P6SM SCT015 BKN100
     FM260500 16007KT P6SM BKN050
     FM261500 15005KT P6SM SCT010 BKN035=

USA.gov is the U.S. government's official web portal to all federal, state and local government web resources and services.